[[{"header":{"parameterUnit":"m.s-1","parameterCategory":1,"la1":30.2991,"la2":30.254,"lo1":-89.0895,"lo2":-89.0444,"dx":0.0017,"dy":0.0017,"nx":28,"ny":28,"refTime":"2023-01-22T03:00:00:Z","depth":0,"parameterNumber":2,"parameterNumberName":"U-component_of_WINDS"},"data":[0,0,0,0,0,0,0,0,0,0,0,0,0,0,0,0,0,0,0,0,0,0,0,0,0,0,0,0,0,0,0,0,0,0,0,0,0,0,0,0,0,0,0,0,0,0,0,0,0,0,0,0,0,0,0,0,0,0,-1.3943,-1.3943,0,-1.3896,-1.3896,-1.3895,-1.3837,-1.3836,-1.3835,-1.3834,-1.3787,-1.3787,-1.3787,0,0,0,0,0,0,0,0,0,0,0,0,0,-1.3984,-1.3983,-1.3943,-1.3943,-1.3942,-1.3896,-1.3896,-1.3895,-1.3837,-1.3836,-1.3835,-1.3834,-1.3788,-1.3787,-1.3787,0,0,0,0,0,0,0,0,0,0,0,0,0,-1.3954,-1.3983,-1.3943,-1.3908,-1.3904,-1.3896,-1.3896,-1.3895,-1.3837,-1.3836,-1.3835,-1.3833,-1.3788,-1.3787,-1.3787,-1.3811,0,0,-1.3785,-1.3785,0,0,0,0,0,0,0,0,-1.3956,-1.3953,-1.3913,-1.391,-1.3906,-1.3871,-1.3893,-1.3867,-1.3838,-1.3863,-1.3834,-1.3833,-1.3816,-1.3813,-1.3808,-1.3808,-1.3806,-1.3785,-1.3784,-1.3784,-1.3784,0,0,0,0,0,0,0,-1.3958,-1.3955,-1.3925,-1.3913,-1.3908,-1.3894,-1.3889,-1.3887,-1.3848,-1.386,-1.3856,-1.3851,-1.3814,-1.3808,-1.3806,-1.3806,-1.3785,-1.3784,-1.3784,-1.3784,-1.3824,-1.3825,0,0,0,0,0,0,-1.3965,-1.3957,-1.3926,-1.3923,-1.3928,-1.3895,-1.3888,-1.3884,-1.3848,-1.3841,-1.3853,-1.3849,-1.381,-1.3807,-1.3804,-1.383,-1.3784,-1.3784,-1.3783,-1.3823,-1.3824,-1.3826,0,0,0,0,0,0,-1.3966,-1.3963,-1.3928,-1.3939,-1.3933,-1.3895,-1.3891,-1.3883,-1.3878,-1.3842,-1.3835,-1.3854,-1.3809,-1.3805,-1.3809,-1.3828,-1.3783,-1.3783,-1.3821,-1.3823,-1.3825,-1.3883,0,0,0,0,0,0,-1.3968,-1.3964,-1.3973,-1.3939,-1.3933,-1.3934,-1.3892,-1.3884,-1.3877,-1.3871,-1.3841,-1.3835,-1.3807,-1.3811,-1.3809,-1.3826,-1.3782,-1.3819,-1.3822,-1.3824,-1.3879,-1.3887,-1.3893,0,0,0,0,0,-1.397,-1.3991,-1.3973,-1.397,-1.3943,-1.3935,-1.3931,-1.3899,-1.3878,-1.3887,-1.3864,-1.3836,-1.3826,-1.3812,-1.3809,-1.3827,-1.3818,-1.3821,-1.3824,-1.3876,-1.3885,-1.3893,0,0,0,0,0,0,-1.4027,-1.3986,-1.3966,-1.3977,-1.396,-1.3925,-1.3935,-1.391,-1.3899,-1.3894,-1.3855,-1.3849,-1.3858,-1.3842,-1.3827,-1.3848,-1.3818,-1.3821,-1.3858,-1.3866,-1.3873,-1.3877,-1.3782,0,0,0,0,0,-1.4041,-1.4038,-1.4002,-1.4015,-1.4008,-1.3973,-1.3968,-1.3945,-1.3926,-1.3919,-1.3896,-1.3879,-1.3872,-1.3868,-1.386,-1.3876,-1.3869,-1.3887,-1.3894,-1.39,-1.3903,-1.3911,-1.3919,-1.3836,-1.3836,-1.3836,0,0,-1.407,-1.4047,-1.4048,-1.4026,-1.4011,-1.4009,-1.3967,-1.3967,-1.3965,-1.3919,-1.3921,-1.3904,-1.3882,-1.3893,-1.3897,-1.3881,-1.3924,-1.3904,-1.3909,-1.3909,-1.3915,-1.3923,-1.393,-1.3839,-1.3838,-1.3838,0,0,-1.4122,-1.4104,-1.4114,-1.4098,-1.4075,-1.4051,-1.4054,-1.4023,-1.4009,-1.4011,-1.3976,-1.3974,-1.3963,-1.3949,-1.394,-1.3987,-1.3961,-1.3985,-1.4022,-1.4031,-1.4037,-1.4043,-1.406,-1.4067,-1.3988,-1.3989,-1.3989,0,-1.4162,-1.4157,-1.4122,-1.4124,-1.4115,-1.4073,-1.4082,-1.4069,-1.4044,-1.404,-1.4022,-1.4007,-1.3989,-1.3996,-1.4008,-1.4002,-1.4004,-1.3989,-1.4039,-1.4044,-1.4049,-1.4065,-1.4072,-1.3992,-1.3991,-1.3991,-1.3991,0,-1.4207,-1.4204,-1.4215,-1.4191,-1.4184,-1.419,-1.4156,-1.4153,-1.413,-1.4109,-1.4111,-1.4089,-1.4075,-1.4075,-1.4053,-1.4079,-1.407,-1.4046,-1.4015,-1.4061,-1.4075,-1.4081,-1.3996,-1.3995,-1.3994,-1.3993,0,0,-1.4295,-1.4251,-1.4256,-1.4245,-1.4215,-1.4213,-1.4217,-1.4203,-1.4202,-1.4186,-1.4188,-1.418,-1.4158,-1.4148,-1.4124,-1.4131,-1.4171,-1.4106,-1.4105,-1.412,-1.4199,-1.4218,-1.4225,-1.4153,-1.4154,-1.4155,-1.4201,0,-1.4342,-1.4346,-1.4314,-1.4327,-1.4324,-1.4283,-1.4286,-1.4269,-1.4249,-1.4244,-1.4222,-1.4217,-1.4188,-1.4182,-1.4187,-1.4165,-1.4186,-1.4161,-1.4156,-1.4156,-1.4163,-1.4233,-1.4252,-1.4297,-1.4206,-1.4207,-1.4208,0,-1.4398,-1.4385,-1.4397,-1.4367,-1.4365,-1.4369,-1.4354,-1.4349,-1.4329,-1.4314,-1.4303,-1.4275,-1.4277,-1.4247,-1.425,-1.4234,-1.4229,-1.4218,-1.4219,-1.4218,-1.4185,-1.4235,-1.4311,-1.4318,-1.4216,-1.4216,-1.4215,0,-1.4461,-1.4447,-1.4452,-1.4444,-1.4409,-1.4413,-1.4399,-1.4377,-1.4371,-1.4358,-1.4353,-1.4341,-1.4334,-1.4326,-1.4295,-1.4276,-1.4302,-1.4269,-1.429,-1.4291,-1.4298,-1.4298,-1.4376,-1.4294,-1.4294,-1.4294,-1.4294,0,-1.4518,-1.4527,-1.4481,-1.4484,-1.4494,-1.4457,-1.4467,-1.4449,-1.443,-1.443,-1.4393,-1.4394,-1.4353,-1.435,-1.4326,-1.4332,-1.4329,-1.4318,-1.4312,-1.4322,-1.4323,-1.4319,-1.4316,-1.4296,-1.4296,-1.4295,-1.4295,0,-1.4591,-1.456,-1.4564,-1.453,-1.4522,-1.4531,-1.4502,-1.4504,-1.4482,-1.4482,-1.448,-1.4445,-1.4439,-1.4407,-1.4394,-1.4378,-1.4393,-1.438,-1.44,-1.4396,-1.4419,-1.4418,-1.4497,-1.4506,-1.4418,-1.4419,-1.442,0,-1.463,-1.4636,-1.4603,-1.46,-1.4587,-1.4583,-1.4576,-1.454,-1.4535,-1.4512,-1.4518,-1.4508,-1.4499,-1.4491,-1.4465,-1.4454,-1.4441,-1.447,-1.4439,-1.4449,-1.4442,-1.4443,-1.4444,-1.4477,-1.4478,-1.4479,-1.4479,0,-1.4702,-1.4686,-1.4678,-1.4665,-1.4658,-1.4646,-1.4632,-1.4631,-1.4591,-1.4587,-1.458,-1.4573,-1.4559,-1.455,-1.4535,-1.4521,-1.4494,-1.4489,-1.4493,-1.4504,-1.4516,-1.4511,-1.4418,-1.4488,-1.4487,-1.4486,-1.4486,-1.4485,-1.4759,-1.4763,-1.474,-1.4733,-1.4718,-1.4706,-1.4706,-1.4684,-1.4677,-1.4663,-1.4642,-1.4638,-1.4617,-1.4594,-1.4582,-1.4579,-1.4563,-1.4569,-1.4571,-1.4574,-1.4579,-1.4516,-1.4576,-1.4575,-1.4575,-1.4575,-1.4575,0,-1.483,-1.4813,-1.4807,-1.4788,-1.4782,-1.4756,-1.4739,-1.4736,-1.4733,-1.4715,-1.4707,-1.4699,-1.4691,-1.4664,-1.4652,-1.4655,-1.4642,-1.4653,-1.4653,-1.4651,-1.4593,-1.4591,-1.4664,-1.4664,-1.4664,-1.4664,-1.4664,-1.4664,-1.4866,-1.4871,-1.4853,-1.4851,-1.4834,-1.483,-1.4822,-1.4811,-1.4797,-1.479,-1.4782,-1.4765,-1.4744,-1.4731,-1.4722,-1.4714,-1.4712,-1.4728,-1.4716,-1.4663,-1.4655,-1.4647,-1.4644,-1.4727,-1.4728,-1.4774,-1.4775,-1.4775]},{"header":{"parameterUnit":"m.s-1","parameterCategory":1,"la1":30.2991,"la2":30.254,"lo1":-89.0895,"lo2":-89.0444,"dx":0.0017,"dy":0.0017,"nx":28,"ny":28,"refTime":"2023-01-22T03:00:00:Z","depth":0,"parameterNumber":3,"parameterNumberName":"V-component_of_WINDS"},"data":[0,0,0,0,0,0,0,0,0,0,0,0,0,0,0,0,0,0,0,0,0,0,0,0,0,0,0,0,0,0,0,0,0,0,0,0,0,0,0,0,0,0,0,0,0,0,0,0,0,0,0,0,0,0,0,0,0,0,-1.561,-1.561,0,-1.5609,-1.5608,-1.5608,-1.5619,-1.562,-1.562,-1.562,-1.5617,-1.5617,-1.5616,0,0,0,0,0,0,0,0,0,0,0,0,0,-1.562,-1.562,-1.561,-1.561,-1.561,-1.5609,-1.5608,-1.5608,-1.5619,-1.562,-1.562,-1.5621,-1.5617,-1.5617,-1.5616,0,0,0,0,0,0,0,0,0,0,0,0,0,-1.5617,-1.562,-1.561,-1.5615,-1.5615,-1.5609,-1.5608,-1.5608,-1.5619,-1.562,-1.562,-1.5621,-1.5617,-1.5617,-1.5616,-1.5603,0,0,-1.5615,-1.5614,0,0,0,0,0,0,0,0,-1.5617,-1.5616,-1.5614,-1.5615,-1.5615,-1.5615,-1.5611,-1.5607,-1.5619,-1.5618,-1.562,-1.5621,-1.5616,-1.5615,-1.5614,-1.5603,-1.5603,-1.5614,-1.5614,-1.5614,-1.5614,0,0,0,0,0,0,0,-1.5617,-1.5616,-1.5609,-1.5614,-1.5615,-1.5617,-1.5617,-1.561,-1.5614,-1.5618,-1.5619,-1.5619,-1.5616,-1.5615,-1.5614,-1.5603,-1.5614,-1.5614,-1.5614,-1.5613,-1.5583,-1.5583,0,0,0,0,0,0,-1.5617,-1.5616,-1.5609,-1.5609,-1.5617,-1.5616,-1.5617,-1.5614,-1.5614,-1.5615,-1.5618,-1.5619,-1.5615,-1.5615,-1.5614,-1.56,-1.5614,-1.5613,-1.5613,-1.5584,-1.5583,-1.5583,0,0,0,0,0,0,-1.5617,-1.5616,-1.5609,-1.5613,-1.5612,-1.5616,-1.5613,-1.5614,-1.5613,-1.5614,-1.5615,-1.5616,-1.5616,-1.5615,-1.5606,-1.56,-1.5613,-1.5613,-1.5584,-1.5583,-1.5583,-1.5572,0,0,0,0,0,0,-1.5617,-1.5616,-1.5611,-1.5613,-1.5612,-1.5602,-1.5613,-1.5614,-1.5612,-1.5613,-1.5613,-1.5613,-1.5616,-1.5607,-1.5606,-1.56,-1.5612,-1.5585,-1.5584,-1.5583,-1.5573,-1.5571,-1.5569,0,0,0,0,0,-1.5618,-1.5608,-1.5611,-1.561,-1.5607,-1.5602,-1.5601,-1.5606,-1.5611,-1.5607,-1.5608,-1.5613,-1.5601,-1.5606,-1.5605,-1.5598,-1.5585,-1.5584,-1.5583,-1.5573,-1.5571,-1.5569,0,0,0,0,0,0,-1.5604,-1.5608,-1.5612,-1.5602,-1.5602,-1.5604,-1.5598,-1.5603,-1.56,-1.5601,-1.5606,-1.5606,-1.5597,-1.5596,-1.5602,-1.5587,-1.5594,-1.5593,-1.5587,-1.5585,-1.5583,-1.5584,-1.5612,0,0,0,0,0,-1.56,-1.5597,-1.56,-1.5591,-1.5591,-1.5594,-1.5592,-1.5596,-1.5595,-1.5595,-1.5595,-1.5594,-1.559,-1.5587,-1.5584,-1.5572,-1.5573,-1.5567,-1.5565,-1.5564,-1.5563,-1.5558,-1.5556,-1.5579,-1.5579,-1.5579,0,0,-1.5592,-1.5593,-1.5591,-1.5588,-1.5588,-1.5584,-1.5594,-1.5589,-1.5586,-1.5594,-1.5587,-1.5587,-1.5586,-1.5576,-1.5572,-1.5576,-1.5557,-1.5563,-1.5561,-1.5561,-1.5557,-1.5555,-1.5553,-1.5578,-1.5579,-1.5579,0,0,-1.5575,-1.5575,-1.5569,-1.5569,-1.5569,-1.5572,-1.557,-1.5572,-1.5573,-1.5566,-1.5572,-1.5568,-1.5561,-1.556,-1.5559,-1.5543,-1.5548,-1.5541,-1.5532,-1.5527,-1.5526,-1.5524,-1.5519,-1.5517,-1.554,-1.554,-1.554,0,-1.5564,-1.5559,-1.5564,-1.556,-1.5559,-1.5567,-1.556,-1.556,-1.5558,-1.5557,-1.5562,-1.5554,-1.5553,-1.5545,-1.5541,-1.5539,-1.5538,-1.5542,-1.5526,-1.5524,-1.5523,-1.5518,-1.5516,-1.5539,-1.554,-1.554,-1.554,0,-1.5547,-1.5543,-1.5537,-1.5537,-1.5536,-1.553,-1.5534,-1.5532,-1.5535,-1.5538,-1.5531,-1.5531,-1.5528,-1.5526,-1.5529,-1.5518,-1.552,-1.5525,-1.5533,-1.552,-1.5516,-1.5514,-1.5539,-1.5539,-1.5539,-1.5539,0,0,-1.5521,-1.5525,-1.5523,-1.5524,-1.5525,-1.5522,-1.5517,-1.5515,-1.5513,-1.5512,-1.5508,-1.5502,-1.5507,-1.5506,-1.5509,-1.5504,-1.5493,-1.551,-1.551,-1.5507,-1.5482,-1.5479,-1.5477,-1.5496,-1.5496,-1.5495,-1.5482,0,-1.5506,-1.5498,-1.5503,-1.5494,-1.5491,-1.5499,-1.5494,-1.5494,-1.5496,-1.5494,-1.5495,-1.5492,-1.5498,-1.5497,-1.5493,-1.5495,-1.5488,-1.5496,-1.5492,-1.5492,-1.5493,-1.5475,-1.5471,-1.5459,-1.5481,-1.548,-1.548,0,-1.5486,-1.5486,-1.5477,-1.548,-1.5479,-1.5475,-1.5475,-1.5472,-1.5472,-1.5474,-1.5473,-1.5477,-1.5472,-1.548,-1.5473,-1.5478,-1.5477,-1.5478,-1.5477,-1.5478,-1.5486,-1.5475,-1.5455,-1.5453,-1.5477,-1.5478,-1.5478,0,-1.547,-1.5467,-1.5462,-1.5462,-1.5465,-1.5462,-1.5463,-1.5464,-1.5463,-1.5462,-1.5462,-1.546,-1.5459,-1.5457,-1.5461,-1.5466,-1.5454,-1.5461,-1.5456,-1.5456,-1.5453,-1.5454,-1.5433,-1.5451,-1.5451,-1.5451,-1.5451,0,-1.5453,-1.5448,-1.5455,-1.5452,-1.5446,-1.5452,-1.5446,-1.5447,-1.5449,-1.5446,-1.5451,-1.5449,-1.5453,-1.5451,-1.5454,-1.5448,-1.5447,-1.5449,-1.545,-1.5449,-1.5449,-1.5449,-1.545,-1.5451,-1.5451,-1.5451,-1.5451,0,-1.5434,-1.5439,-1.5434,-1.5438,-1.5439,-1.5434,-1.5437,-1.5435,-1.5437,-1.5434,-1.5433,-1.5437,-1.5434,-1.5438,-1.5435,-1.5437,-1.543,-1.5432,-1.543,-1.5431,-1.5426,-1.5427,-1.5405,-1.5403,-1.5421,-1.5421,-1.5421,0,-1.5424,-1.542,-1.5424,-1.5423,-1.5424,-1.5422,-1.5421,-1.5427,-1.5426,-1.5426,-1.5423,-1.5422,-1.5421,-1.5416,-1.5419,-1.5417,-1.5419,-1.5412,-1.5419,-1.5418,-1.542,-1.5421,-1.5421,-1.5411,-1.541,-1.541,-1.541,0,-1.5404,-1.5407,-1.5406,-1.5407,-1.5406,-1.5406,-1.5407,-1.5405,-1.5411,-1.5409,-1.5408,-1.5407,-1.5405,-1.5403,-1.5402,-1.5403,-1.5408,-1.5408,-1.5407,-1.5406,-1.5406,-1.5407,-1.5427,-1.5408,-1.5409,-1.5409,-1.5409,-1.5409,-1.539,-1.5387,-1.539,-1.5389,-1.539,-1.5391,-1.5389,-1.5392,-1.5391,-1.539,-1.5393,-1.5391,-1.5392,-1.5391,-1.5392,-1.539,-1.5393,-1.5391,-1.539,-1.539,-1.539,-1.5406,-1.5389,-1.5389,-1.5389,-1.539,-1.539,0,-1.5372,-1.5374,-1.5373,-1.5375,-1.5374,-1.5379,-1.538,-1.5379,-1.5377,-1.5378,-1.5378,-1.5376,-1.5374,-1.5377,-1.5376,-1.5374,-1.5376,-1.5373,-1.5374,-1.5374,-1.5386,-1.5388,-1.5372,-1.5372,-1.5372,-1.5372,-1.5372,-1.5372,-1.5362,-1.5359,-1.5362,-1.5359,-1.5361,-1.536,-1.536,-1.5361,-1.5362,-1.536,-1.5359,-1.5361,-1.5363,-1.5362,-1.5361,-1.5362,-1.5362,-1.5359,-1.536,-1.5372,-1.5373,-1.5375,-1.5377,-1.5358,-1.5358,-1.5348,-1.5348,-1.5348]}]]